Location: Newark
(49.8969°N, 3.3422°E)
Time: 18:31:01
(UTC+00:00)

A-11 Canister half - Pass Details

Date: 28 January 2020
Orbit: 1517 x 1683 km, 47.2° (Epoch: 17 February)

Event Time Altitude Azimuth Distance (km) Brightness Sun altitude
Exits shadow 05:56:21 16° 263° (W) 3,227 10.1 -14.4°
Maximum altitude 06:00:47 23° 228° (SW) 2,809 10.1 -13.7°
Drops below altitude 10° 06:07:31 10° 180° (S) 3,708 11.2 -12.6°
Sets 06:11:25 0° 167° (SSE) 4,709 11.9 -12.0°
